IKONOS 2

Last updated on Wed Apr 06 2016 09:37:55 GMT+0000 (Coordinated Universal Time)

1 25919U 99051A 16097.11452907 -.00000142 00000-0 -95056-5 0 9991 2 25919 98.0536 183.4167 0008296 138.4256 221.7627 14.86766193884595

Satellite not in orbit

IKONOS 2